SCP
0 0 0 0 0 0 0 1 1 2 1 0 1 1 1 1 1 2 1 2 1 1 1 1 1 1 0 0 0 1 3 2 1 1 1 0 0 0 0 0 0 0 0
0 0 0 0 0 0 0 1 1 1 1 0 1 1 1 1 2 2 2 1 1 1 1 1 1 1 1 1 1 2 2 1 1 1 1 0 1 0 0 0 0 0 0
0 0 0 0 0 0 0 0 0 1 1 0 1 1 2 2 1 1 2 1 1 1 1 1 1 1 1 1 1 1 1 1 1 0 0 0 0 0 0 0 0 0 0
0 0 0 0 0 0 0 0 0 0 0 0 1 1 1 1 1 1 1 1 1 1 1 1 1 1 1 1 1 1 1 1 1 0 0 0 0 0 0 0 0 0 0
0 0 0 0 0 0 0 0 0 0 0 0 0 1 1 1 1 1 1 1 1 1 1 1 1 1 1 1 1 1 1 1 0 0 0 0 0 0 0 0 0 0 0
0 0 0 0 0 0 0 0 0 0 0 0 0 1 1 2 2 2 1 1 1 1 1 1 1 1 1 1 1 0 0 0 0 0 0 0 0 0 0 0 0 0 0
0 0 0 0 0 0 0 0 0 1 0 0 1 1 1 1 1 1 1 1 1 1 1 1 1 1 1 1 0 0 0 0 0 0 0 0 0 0 -0 0 0 0 0
0 0 0 0 0 0 0 0 0 1 0 1 1 1 1 1 1 1 1 1 1 1 1 1 1 1 0 0 0 0 0 0 0 0 0 -0 0 0 -0 0 0 0 0
0 0 0 0 0 0 0 0 0 0 0 1 2 2 1 1 2 1 1 1 1 1 1 1 1 0 0 0 0 0 0 0 0 0 0 -0 -0 -0 0 -0 -0 0 0
0 0 0 0 0 0 0 1 0 0 1 1 1 1 1 1 1 1 1 1 1 1 1 0 0 0 0 0 0 0 0 0 0 0 -0 -0 -0 0 -0 0 0 0 0
-0 0 0 0 0 0 1 1 1 1 1 0 0 0 1 0 0 0 0 1 1 0 0 0 0 0 0 0 0 0 0 0 0 0 0 -0 -0 -0 0 0 0 0 0
0 0 0 1 1 1 1 1 0 0 0 0 0 0 0 0 0 0 0 0 0 0 0 0 0 0 0 0 0 0 0 0 0 0 0 0 0 0 0 0 0 0 0
0 0 1 1 0 0 0 0 0 0 0 0 0 0 0 0 0 0 0 0 0 0 0 0 0 0 0 0 0 0 0 0 0 0 0 0 0 0 0 0 0 0 0
0 0 1 1 0 0 0 0 0 0 0 0 0 0 0 0 0 0 0 0 0 0 0 0 0 0 0 0 0 0 0 0 0 0 -0 -0 0 0 0 0 0 0 0
0 0 0 1 0 0 0 0 0 0 0 0 0 0 0 0 0 0 0 0 0 0 0 0 0 0 0 0 0 0 0 0 0 -0 -0 0 0 0 0 0 0 0 0
0 0 0 0 0 0 0 0 0 0 0 0 0 0 0 0 0 0 0 0 0 0 0 0 0 0 0 -0 0 -0 0 0 0 -0 -0 0 0 0 0 0 0 0 0
0 1 0 0 0 0 0 0 0 0 0 0 0 0 0 0 0 0 0 0 0 0 0 0 0 0 -0 -0 0 0 0 0 0 -0 -0 -0 0 0 0 0 0 0 0
0 1 0 0 0 0 0 0 0 0 0 0 0 0 0 0 -0 -0 -0 -0 0 0 0 0 0 -0 0 0 0 0 0 -0 0 -0 0 -0 0 0 0 0 0 0 0
0 1 0 0 0 0 0 0 0 0 0 0 0 0 0 -0 -0 -0 -0 -0 -0 0 0 0 -0 -0 -0 0 -0 0 0 -0 -0 -0 0 0 0 0 0 0 0 0 0
1 1 0 0 0 0 0 0 0 0 0 0 0 -0 -0 -0 -0 -0 -0 0 0 0 0 0 -0 -0 -0 0 -0 0 0 -0 -0 -0 -0 0 0 -0 0 0 -0 0 0
1 0 0 0 0 0 0 0 0 0 0 0 -0 -0 -0 -0 -0 -0 -0 0 0 0 0 0 0 -0 -0 -0 -0 0 0 0 0 0 0 0 0 0 0 0 0 0 0
1 0 0 0 0 0 0 0 -0 0 0 0 -0 -0 -0 -0 -0 -0 -0 -0 -0 -0 0 0 0 -0 -0 -0 0 0 0 0 0 0 0 0 0 0 0 0 0 0 0
1 0 0 0 0 0 0 0 -0 -0 0 -0 -0 -0 -0 -0 -0 -0 -0 -0 -0 0 0 0 0 -0 -0 0 -0 -0 0 0 0 0 0 0 0 0 0 0 0 0 0
1 0 0 0 0 0 0 -0 -0 0 0 -0 -0 -0 -0 -0 -0 -0 -0 -0 -0 0 0 0 0 0 0 0 0 0 0 0 0 0 0 0 0 0 0 0 0 0 0
1 0 0 0 0 0 0 -0 -0 0 -0 -0 -0 0 -0 -0 -0 -0 0 -0 0 0 0 0 0 0 -0 0 0 -0 0 0 0 0 0 0 0 0 0 0 0 0 0
1 0 0 0 0 0 0 0 0 0 -0 0 0 0 -0 -0 -0 -0 -0 -0 0 0 0 0 0 0 -0 -0 0 -0 0 -0 -0 0 0 -0 0 0 0 0 0 -0 0
Wind_Speed_500mb
63 59 55 52 50 49 62 63 63 61 60 53 44 38 43 43 37 36 43 42 37 36 36 35 42 40 41 43 40 35 34 25 23 24 29 31 37 39 36 34 32 28 26
67 63 62 56 53 56 57 62 55 54 57 46 45 34 32 33 34 35 39 33 32 35 36 39 34 33 35 41 36 38 28 22 27 20 20 29 24 25 29 29 26 28 31
70 69 67 65 61 62 63 56 52 43 44 46 43 42 31 40 40 29 29 31 33 35 33 35 31 33 33 33 38 33 29 25 21 28 22 15 12 5 13 26 23 28 33
75 74 71 70 66 61 56 54 62 60 55 54 45 41 34 30 30 26 29 34 32 32 35 32 32 36 32 35 32 27 26 26 24 28 26 29 21 10 9 13 23 28 29
69 68 62 60 55 52 53 56 60 62 54 55 44 40 32 23 23 28 28 33 34 37 37 36 35 35 31 31 30 28 29 29 23 22 18 21 22 21 16 12 16 30 31
55 44 41 45 47 40 36 38 44 49 53 45 38 37 34 31 32 34 37 38 38 36 38 36 34 32 30 32 30 29 26 22 21 21 21 21 20 23 17 10 13 20 25
33 35 33 34 37 32 29 28 31 34 38 34 35 36 34 32 34 36 38 39 38 34 36 38 34 31 34 29 26 24 19 21 21 22 22 19 19 19 24 18 16 17 21
27 29 34 27 30 29 29 26 27 29 32 35 37 37 36 33 35 36 38 33 32 33 39 33 30 28 25 23 21 18 19 21 21 18 20 18 18 17 14 18 21 19 17
30 32 30 22 21 25 26 26 30 33 36 39 42 43 39 41 40 40 38 37 36 32 33 29 26 23 19 19 20 19 20 22 22 18 21 19 19 20 20 19 22 20 23
33 22 13 12 17 24 24 31 35 40 42 43 43 42 44 42 44 43 37 34 31 29 27 23 20 18 18 18 19 21 24 25 24 20 20 20 19 21 22 22 20 20 19
31 15 7 6 18 27 35 40 43 45 46 45 43 43 42 43 42 38 34 31 29 24 20 19 19 17 16 16 17 18 18 22 25 21 18 19 20 21 21 26 23 19 19
34 14 2 18 30 37 42 44 45 46 45 44 45 43 42 40 38 34 30 27 23 22 21 19 17 14 13 14 15 18 20 25 30 30 26 20 16 22 24 26 25 22 24
35 15 7 18 33 39 42 45 45 46 47 46 46 43 39 36 33 30 28 26 27 26 22 19 15 11 11 13 14 16 23 26 32 38 32 26 19 19 25 26 27 23 25
30 9 6 14 32 38 41 44 45 46 48 45 42 40 35 31 30 29 29 28 27 26 21 16 10 8 7 9 12 18 19 20 29 38 37 32 20 21 23 29 28 27 27
34 4 11 14 29 39 43 44 46 46 44 41 38 36 34 31 29 29 30 29 28 23 18 13 9 4 4 6 7 5 6 11 14 20 39 27 23 23 25 34 28 32 35
31 0 18 21 32 40 44 47 47 43 40 38 36 35 31 29 28 29 31 31 26 22 18 13 8 4 3 1 2 10 4 7 14 21 25 25 25 26 27 32 39 32 39
32 7 26 29 35 42 45 47 45 42 40 38 36 31 28 26 26 30 32 28 24 21 17 14 8 4 5 6 6 13 9 10 12 17 22 23 24 29 32 37 40 43 34
33 13 32 37 39 44 46 45 42 41 40 37 33 27 24 25 30 33 31 26 25 22 14 15 9 7 8 8 8 13 8 10 12 14 18 24 30 31 34 36 34 33 30
26 20 39 42 45 49 48 45 42 42 38 34 30 25 24 30 31 30 27 29 26 19 15 14 9 7 9 9 11 10 5 11 12 12 18 22 36 36 35 39 41 42 36
18 31 42 46 52 53 50 46 45 42 36 32 28 24 26 30 30 28 28 25 25 19 13 13 10 7 9 10 11 9 13 14 20 21 24 24 32 37 35 36 41 45 42
14 37 43 51 54 54 52 49 46 41 35 29 27 26 29 30 31 28 26 25 26 22 18 16 13 10 11 12 11 12 18 24 18 23 28 32 29 33 38 42 46 51 46
24 40 47 50 53 53 50 49 46 41 33 30 30 30 31 29 30 28 25 24 24 22 19 18 15 14 14 14 14 16 23 28 22 30 33 34 33 36 35 35 37 41 41
31 41 47 50 50 49 48 50 48 41 35 36 33 31 29 27 25 25 24 23 23 21 18 17 16 18 21 15 16 21 29 30 24 33 35 34 33 34 31 33 40 40 34
30 43 47 49 51 48 47 50 48 42 36 37 35 31 28 24 20 17 17 20 20 20 19 19 19 20 26 21 19 25 33 30 39 40 38 34 35 36 38 39 40 34 39
35 45 47 49 49 49 48 50 47 42 40 40 34 29 23 21 18 14 14 10 15 19 18 18 19 21 29 27 22 26 35 39 40 46 45 45 48 49 43 35 33 37 41
40 47 48 48 50 50 48 48 47 43 43 40 35 29 24 19 17 16 17 18 17 20 23 27 20 20 21 29 27 24 31 38 39 38 39 44 41 38 34 34 36 35 51
Wind_Direction_500mb
270 272 272 271 267 265 273 271 268 262 256 264 263 260 253 240 234 222 230 225 216 213 217 208 217 217 211 214 225 222 220 231 240 250 267 271 268 260 251 246 241 223 224
266 269 269 268 267 266 267 273 267 263 262 260 261 248 237 227 221 218 231 217 208 213 216 205 208 206 209 214 208 205 213 226 234 252 267 272 249 248 239 240 226 226 215
267 267 267 266 266 264 265 265 262 263 259 261 258 254 224 224 228 222 206 203 209 213 208 200 189 202 191 199 198 204 211 231 242 253 245 272 272 243 251 226 217 222 215
263 266 268 269 267 265 261 258 262 256 259 262 252 244 219 214 220 200 205 204 201 190 182 179 182 182 177 192 197 208 223 235 245 265 244 240 253 256 216 227 218 207 213
260 261 264 265 265 261 255 251 250 254 253 253 240 229 193 193 181 167 190 184 177 173 169 171 172 174 176 196 198 220 235 244 242 244 242 234 240 242 238 213 190 209 206
261 263 271 272 249 249 248 238 239 235 234 236 225 206 187 180 169 170 165 165 164 163 168 171 173 180 188 201 213 228 238 235 230 227 225 239 226 230 211 182 181 189 203
261 269 271 263 242 239 230 228 223 214 215 211 203 187 185 178 171 161 156 158 159 165 171 173 181 191 206 213 217 233 225 220 219 221 231 233 236 237 225 203 186 188 199
283 278 278 258 241 229 218 219 195 184 182 177 168 167 165 156 154 151 156 160 162 163 171 175 189 197 205 211 223 225 213 217 217 231 230 224 215 225 224 195 185 162 172
320 297 279 255 231 205 195 181 173 162 158 154 155 151 147 143 149 148 145 150 157 167 169 176 183 197 207 216 215 209 218 218 226 236 236 230 207 202 208 212 200 190 171
336 314 273 236 199 195 174 162 157 151 147 144 143 143 143 148 151 148 147 148 154 158 166 175 191 200 199 204 216 224 224 226 233 233 236 235 223 202 194 202 198 196 175
351 330 296 182 161 149 149 146 146 143 140 137 139 137 138 143 145 145 147 155 164 167 172 175 171 178 190 208 222 232 233 224 221 227 225 239 224 207 186 194 195 198 179
5 356 59 135 143 143 141 141 140 139 138 137 135 135 137 141 143 145 149 160 163 154 155 158 165 181 201 223 240 246 224 216 220 214 222 223 225 200 190 187 195 208 187
13 12 98 141 146 143 141 140 139 138 137 136 137 137 140 143 146 150 155 150 148 148 149 156 164 185 217 235 237 232 229 236 230 220 223 218 216 198 192 188 196 185 166
5 29 158 164 150 145 143 142 141 139 138 139 140 140 143 146 146 146 146 147 148 148 154 156 163 188 222 236 247 251 256 251 237 226 215 214 217 206 200 191 182 167 165
350 46 188 163 155 149 145 142 140 140 140 141 140 139 140 142 142 145 150 151 150 151 154 145 151 157 235 253 227 254 238 224 246 224 201 211 209 200 194 191 174 173 169
331 173 189 170 161 153 148 146 144 143 143 141 138 138 140 145 150 150 153 152 153 154 152 137 134 161 145 138 138 131 163 131 137 152 180 191 194 192 183 189 172 177 174
317 238 188 177 166 158 154 152 148 146 144 141 141 141 143 150 155 158 155 157 159 157 150 127 120 99 108 83 77 111 133 131 146 172 186 180 176 174 168 161 173 170 183
298 211 184 178 169 161 157 154 150 149 146 147 146 149 150 154 148 152 159 163 155 156 145 126 110 98 98 96 90 116 132 149 159 174 186 184 178 174 177 173 172 168 175
273 199 180 172 165 162 161 157 153 152 152 151 154 156 156 162 160 162 166 164 164 160 144 127 115 98 108 104 100 103 137 150 149 168 165 178 182 179 180 176 177 174 174
267 177 175 167 164 164 163 158 155 156 157 159 159 155 158 162 162 164 165 168 173 160 149 130 122 124 116 105 95 97 111 127 131 135 157 160 168 178 177 180 167 156 158
238 170 169 166 166 165 162 160 158 159 157 156 152 156 157 158 164 165 170 172 167 166 155 139 130 144 126 114 98 107 121 127 124 137 128 133 138 154 161 163 166 161 155
184 168 165 165 165 164 162 162 162 158 157 151 152 153 152 152 165 170 166 172 176 171 165 152 145 150 141 136 109 115 130 113 120 122 136 144 150 154 157 162 159 154 153
174 167 164 163 164 164 163 162 161 160 156 151 151 152 146 146 155 167 184 182 189 183 173 164 157 156 153 149 122 125 140 127 123 122 115 121 142 154 158 158 157 158 168
173 165 164 164 164 164 163 162 160 160 158 155 155 152 146 147 150 162 181 186 187 183 176 167 158 161 159 168 146 138 145 136 127 119 117 119 127 141 154 150 158 166 168
174 164 164 165 164 164 163 164 162 159 157 158 156 151 155 148 151 153 157 164 175 175 174 165 164 175 170 174 161 147 152 151 139 126 120 121 126 130 132 142 154 159 158
161 163 163 160 160 162 162 166 165 163 159 158 157 152 147 146 155 155 156 152 149 156 168 158 155 164 173 167 160 156 162 161 151 138 134 133 132 133 133 139 144 154 153
Wind_Speed_850mb
63 59 55 52 50 49 62 63 63 61 60 53 44 38 43 43 37 36 43 42 37 36 36 35 42 40 41 43 40 35 34 25 23 24 29 31 37 39 36 34 32 28 26
67 63 62 56 53 56 57 62 55 54 57 46 45 34 32 33 34 35 39 33 32 35 36 39 34 33 35 41 36 38 28 22 27 20 20 29 24 25 29 29 26 28 31
70 69 67 65 61 62 63 56 52 43 44 46 43 42 31 40 40 29 29 31 33 35 33 35 31 33 33 33 38 33 29 25 21 28 22 15 12 5 13 26 23 28 33
75 74 71 70 66 61 56 54 62 60 55 54 45 41 34 30 30 26 29 34 32 32 35 32 32 36 32 35 32 27 26 26 24 28 26 29 21 10 9 13 23 28 29
69 68 62 60 55 52 53 56 60 62 54 55 44 40 32 23 23 28 28 33 34 37 37 36 35 35 31 31 30 28 29 29 23 22 18 21 22 21 16 12 16 30 31
55 44 41 45 47 40 36 38 44 49 53 45 38 37 34 31 32 34 37 38 38 36 38 36 34 32 30 32 30 29 26 22 21 21 21 21 20 23 17 10 13 20 25
33 35 33 34 37 32 29 28 31 34 38 34 35 36 34 32 34 36 38 39 38 34 36 38 34 31 34 29 26 24 19 21 21 22 22 19 19 19 24 18 16 17 21
27 29 34 27 30 29 29 26 27 29 32 35 37 37 36 33 35 36 38 33 32 33 39 33 30 28 25 23 21 18 19 21 21 18 20 18 18 17 14 18 21 19 17
30 32 30 22 21 25 26 26 30 33 36 39 42 43 39 41 40 40 38 37 36 32 33 29 26 23 19 19 20 19 20 22 22 18 21 19 19 20 20 19 22 20 23
33 22 13 12 17 24 24 31 35 40 42 43 43 42 44 42 44 43 37 34 31 29 27 23 20 18 18 18 19 21 24 25 24 20 20 20 19 21 22 22 20 20 19
31 15 7 6 18 27 35 40 43 45 46 45 43 43 42 43 42 38 34 31 29 24 20 19 19 17 16 16 17 18 18 22 25 21 18 19 20 21 21 26 23 19 19
34 14 2 18 30 37 42 44 45 46 45 44 45 43 42 40 38 34 30 27 23 22 21 19 17 14 13 14 15 18 20 25 30 30 26 20 16 22 24 26 25 22 24
35 15 7 18 33 39 42 45 45 46 47 46 46 43 39 36 33 30 28 26 27 26 22 19 15 11 11 13 14 16 23 26 32 38 32 26 19 19 25 26 27 23 25
30 9 6 14 32 38 41 44 45 46 48 45 42 40 35 31 30 29 29 28 27 26 21 16 10 8 7 9 12 18 19 20 29 38 37 32 20 21 23 29 28 27 27
34 4 11 14 29 39 43 44 46 46 44 41 38 36 34 31 29 29 30 29 28 23 18 13 9 4 4 6 7 5 6 11 14 20 39 27 23 23 25 34 28 32 35
31 0 18 21 32 40 44 47 47 43 40 38 36 35 31 29 28 29 31 31 26 22 18 13 8 4 3 1 2 10 4 7 14 21 25 25 25 26 27 32 39 32 39
32 7 26 29 35 42 45 47 45 42 40 38 36 31 28 26 26 30 32 28 24 21 17 14 8 4 5 6 6 13 9 10 12 17 22 23 24 29 32 37 40 43 34
33 13 32 37 39 44 46 45 42 41 40 37 33 27 24 25 30 33 31 26 25 22 14 15 9 7 8 8 8 13 8 10 12 14 18 24 30 31 34 36 34 33 30
26 20 39 42 45 49 48 45 42 42 38 34 30 25 24 30 31 30 27 29 26 19 15 14 9 7 9 9 11 10 5 11 12 12 18 22 36 36 35 39 41 42 36
18 31 42 46 52 53 50 46 45 42 36 32 28 24 26 30 30 28 28 25 25 19 13 13 10 7 9 10 11 9 13 14 20 21 24 24 32 37 35 36 41 45 42
14 37 43 51 54 54 52 49 46 41 35 29 27 26 29 30 31 28 26 25 26 22 18 16 13 10 11 12 11 12 18 24 18 23 28 32 29 33 38 42 46 51 46
24 40 47 50 53 53 50 49 46 41 33 30 30 30 31 29 30 28 25 24 24 22 19 18 15 14 14 14 14 16 23 28 22 30 33 34 33 36 35 35 37 41 41
31 41 47 50 50 49 48 50 48 41 35 36 33 31 29 27 25 25 24 23 23 21 18 17 16 18 21 15 16 21 29 30 24 33 35 34 33 34 31 33 40 40 34
30 43 47 49 51 48 47 50 48 42 36 37 35 31 28 24 20 17 17 20 20 20 19 19 19 20 26 21 19 25 33 30 39 40 38 34 35 36 38 39 40 34 39
35 45 47 49 49 49 48 50 47 42 40 40 34 29 23 21 18 14 14 10 15 19 18 18 19 21 29 27 22 26 35 39 40 46 45 45 48 49 43 35 33 37 41
40 47 48 48 50 50 48 48 47 43 43 40 35 29 24 19 17 16 17 18 17 20 23 27 20 20 21 29 27 24 31 38 39 38 39 44 41 38 34 34 36 35 51
Wind_Direction_850mb
270 272 272 271 267 265 273 271 268 262 256 264 263 260 253 240 234 222 230 225 216 213 217 208 217 217 211 214 225 222 220 231 240 250 267 271 268 260 251 246 241 223 224
266 269 269 268 267 266 267 273 267 263 262 260 261 248 237 227 221 218 231 217 208 213 216 205 208 206 209 214 208 205 213 226 234 252 267 272 249 248 239 240 226 226 215
267 267 267 266 266 264 265 265 262 263 259 261 258 254 224 224 228 222 206 203 209 213 208 200 189 202 191 199 198 204 211 231 242 253 245 272 272 243 251 226 217 222 215
263 266 268 269 267 265 261 258 262 256 259 262 252 244 219 214 220 200 205 204 201 190 182 179 182 182 177 192 197 208 223 235 245 265 244 240 253 256 216 227 218 207 213
260 261 264 265 265 261 255 251 250 254 253 253 240 229 193 193 181 167 190 184 177 173 169 171 172 174 176 196 198 220 235 244 242 244 242 234 240 242 238 213 190 209 206
261 263 271 272 249 249 248 238 239 235 234 236 225 206 187 180 169 170 165 165 164 163 168 171 173 180 188 201 213 228 238 235 230 227 225 239 226 230 211 182 181 189 203
261 269 271 263 242 239 230 228 223 214 215 211 203 187 185 178 171 161 156 158 159 165 171 173 181 191 206 213 217 233 225 220 219 221 231 233 236 237 225 203 186 188 199
283 278 278 258 241 229 218 219 195 184 182 177 168 167 165 156 154 151 156 160 162 163 171 175 189 197 205 211 223 225 213 217 217 231 230 224 215 225 224 195 185 162 172
320 297 279 255 231 205 195 181 173 162 158 154 155 151 147 143 149 148 145 150 157 167 169 176 183 197 207 216 215 209 218 218 226 236 236 230 207 202 208 212 200 190 171
336 314 273 236 199 195 174 162 157 151 147 144 143 143 143 148 151 148 147 148 154 158 166 175 191 200 199 204 216 224 224 226 233 233 236 235 223 202 194 202 198 196 175
351 330 296 182 161 149 149 146 146 143 140 137 139 137 138 143 145 145 147 155 164 167 172 175 171 178 190 208 222 232 233 224 221 227 225 239 224 207 186 194 195 198 179
5 356 59 135 143 143 141 141 140 139 138 137 135 135 137 141 143 145 149 160 163 154 155 158 165 181 201 223 240 246 224 216 220 214 222 223 225 200 190 187 195 208 187
13 12 98 141 146 143 141 140 139 138 137 136 137 137 140 143 146 150 155 150 148 148 149 156 164 185 217 235 237 232 229 236 230 220 223 218 216 198 192 188 196 185 166
5 29 158 164 150 145 143 142 141 139 138 139 140 140 143 146 146 146 146 147 148 148 154 156 163 188 222 236 247 251 256 251 237 226 215 214 217 206 200 191 182 167 165
350 46 188 163 155 149 145 142 140 140 140 141 140 139 140 142 142 145 150 151 150 151 154 145 151 157 235 253 227 254 238 224 246 224 201 211 209 200 194 191 174 173 169
331 173 189 170 161 153 148 146 144 143 143 141 138 138 140 145 150 150 153 152 153 154 152 137 134 161 145 138 138 131 163 131 137 152 180 191 194 192 183 189 172 177 174
317 238 188 177 166 158 154 152 148 146 144 141 141 141 143 150 155 158 155 157 159 157 150 127 120 99 108 83 77 111 133 131 146 172 186 180 176 174 168 161 173 170 183
298 211 184 178 169 161 157 154 150 149 146 147 146 149 150 154 148 152 159 163 155 156 145 126 110 98 98 96 90 116 132 149 159 174 186 184 178 174 177 173 172 168 175
273 199 180 172 165 162 161 157 153 152 152 151 154 156 156 162 160 162 166 164 164 160 144 127 115 98 108 104 100 103 137 150 149 168 165 178 182 179 180 176 177 174 174
267 177 175 167 164 164 163 158 155 156 157 159 159 155 158 162 162 164 165 168 173 160 149 130 122 124 116 105 95 97 111 127 131 135 157 160 168 178 177 180 167 156 158
238 170 169 166 166 165 162 160 158 159 157 156 152 156 157 158 164 165 170 172 167 166 155 139 130 144 126 114 98 107 121 127 124 137 128 133 138 154 161 163 166 161 155
184 168 165 165 165 164 162 162 162 158 157 151 152 153 152 152 165 170 166 172 176 171 165 152 145 150 141 136 109 115 130 113 120 122 136 144 150 154 157 162 159 154 153
174 167 164 163 164 164 163 162 161 160 156 151 151 152 146 146 155 167 184 182 189 183 173 164 157 156 153 149 122 125 140 127 123 122 115 121 142 154 158 158 157 158 168
173 165 164 164 164 164 163 162 160 160 158 155 155 152 146 147 150 162 181 186 187 183 176 167 158 161 159 168 146 138 145 136 127 119 117 119 127 141 154 150 158 166 168
174 164 164 165 164 164 163 164 162 159 157 158 156 151 155 148 151 153 157 164 175 175 174 165 164 175 170 174 161 147 152 151 139 126 120 121 126 130 132 142 154 159 158
161 163 163 160 160 162 162 166 165 163 159 158 157 152 147 146 155 155 156 152 149 156 168 158 155 164 173 167 160 156 162 161 151 138 134 133 132 133 133 139 144 154 153